Regional Weather Roundup
Issued by NWS

Home | Current Version | Previous Version | Text Only | Print | Product List | Glossary Off
Versions: 1 2 3 4 5 6 7 8 9 10 11 12 13 14 15 16 17 18 19 20 21 22 23 24 25 26 27 28 29 30 31 32 33 34 35 36 37 38 39 40 41 42 43 44 45 46 47 48 49 50

000
ASUS43 KIND 222209
RWRIN

WEATHER ROUNDUP FOR INDIANA
NATIONAL WEATHER SERVICE INDIANAPOLIS IN
600 PM EDT MON SEP 22 2014

NOTE: "FAIR" INDICATES FEW OR NO CLOUDS BELOW 12,000 FEET WITH NO
SIGNIFICANT WEATHER AND/OR OBSTRUCTIONS TO VISIBILITY.

* - STATION DOES NOT REPORT WEATHER SUCH AS PRECIPITATION OR FOG.

+ - STATION NOT QUALITY CONTROLLED BY THE NATIONAL WEATHER SERVICE.
    USE DATA WITH CAUTION...ESPECIALLY DEWPOINT AND RELATIVE
    HUMIDITY OBSERVATIONS.

INZ001>003-010>013-019-020-222300-
NORTHWEST INDIANA

CITY           SKY/WX    TMP DP  RH WIND       PRES   REMARKS
GARY /AIRPORT/ SUNNY     63  45  51 NE9       30.25F
KNOX *+        SUNNY     62  43  50 N6        30.23F
LA PORTE +     SUNNY     59  44  57 N8        30.25F
MICHIGAN CITY+ SUNNY     59  45  58 NW3       30.26S
MONTICELLO +   SUNNY     65  46  49 N3        30.22S
RENSSELAER +   SUNNY     64  41  42 NW5       30.24S
VALPARAISO     SUNNY     62  41  46 N8        30.25F

$$

LMZ046-743>745-222300-
SOUTHERN LAKE MICHIGAN

STATION/POSITION TIME  TEMP WIND        PRES
                       AIR  DIR/SP/G
                 (UTC) (F)  (DEG/KT/KT) (MB)
MICHIGAN CITY    2100   60  310/  4/  5   N/A

$$

INZ004-005-014>016-021>024-222300-
NORTH CENTRAL INDIANA

CITY           SKY/WX    TMP DP  RH WIND       PRES   REMARKS
ELKHART        SUNNY     63  43  48 N7        30.23F
GOSHEN         SUNNY    N/A N/A N/A NW8       30.22F
LOGANSPORT +   SUNNY     63  43  48 CALM      30.24S
PERU/GRISSOM   SUNNY     64  47  52 N7        30.23S
ROCHESTER +    SUNNY     66  45  45 NW6       30.23S
SOUTH BEND     SUNNY     61  46  57 NW10      30.24F
WARSAW +       SUNNY     63  45  51 NW8       30.22F

$$

INZ006>009-017-018-025>027-222300-
NORTHEAST INDIANA

CITY           SKY/WX    TMP DP  RH WIND       PRES   REMARKS
ANGOLA *+      SUNNY     63  54  72 NW7       30.21S
AUBURN +       SUNNY     63  39  42 W7        30.22S
FORT WAYNE     SUNNY     64  43  46 NW8       30.22S
HUNTINGTON +   SUNNY     63  44  51 NW5       30.22S

$$

INZ028-029-035-036-043>045-051>053-222300-
WEST CENTRAL INDIANA

CITY           SKY/WX    TMP DP  RH WIND       PRES   REMARKS
GREENCASTLE +  SUNNY     64  43  45 CALM      30.24S
LAFAYETTE      SUNNY     65  43  44 N6        30.23S
TERRE HAUTE    SUNNY     68  43  40 N6        30.23S

$$

INZ030>032-037>040-046>048-054>057-064-065-222300-
CENTRAL INDIANA

CITY           SKY/WX    TMP DP  RH WIND       PRES   REMARKS
CP ATTERBURY + SUNNY     64  41  42 NW6       30.23S
COLUMBUS       SUNNY     66  41  39 NW6       30.23S
FRANKFORT +    SUNNY     66  43  43 NW6       30.24F
INDIANAPOLIS   SUNNY     66  41  40 NW5       30.22F
-EAGLE CREEK   SUNNY     66  41  40 N7        30.22F
KOKOMO *+      SUNNY     64  43  45 N7        30.23S
MARION +       SUNNY     64  39  40 NW7       30.23S
MT COMFORT *+  SUNNY     64  30  27 N9        30.23F
SHELBYVILLE    SUNNY     67  41  38 N8        30.23S
ZIONSVILLE +   SUNNY     65  41  41 CALM      30.24S

$$

INZ033-034-041-042-049-050-058-059-222300-
EAST CENTRAL INDIANA

CITY           SKY/WX    TMP DP  RH WIND       PRES   REMARKS
MUNCIE         SUNNY     64  40  41 NW3       30.22F

$$

INZ060-061-067>069-081>083-085>088-222300-
SOUTHWEST INDIANA

CITY           SKY/WX    TMP DP  RH WIND       PRES   REMARKS
EVANSVILLE     SUNNY     71  42  35 N10       30.22S
WASHINGTON +   SUNNY     69  46  43 N7        30.22S

$$

INZ062-063-066-070>080-084-089>092-222300-
SOUTH CENTRAL AND SOUTHEAST INDIANA

CITY           SKY/WX    TMP DP  RH WIND       PRES   REMARKS
BLOOMINGTON    SUNNY     67  42  40 N6        30.23S
NORTH VERNON + SUNNY     66  37  34 NW8       30.23S

$$




USA.gov is the U.S. government's official web portal to all federal, state and local government web resources and services.